Location: Bergnershof
(48.9468°N, 10.9431°E)
Time: 05:04:14
(UTC+00:00)

Cosmos 1633 Rocket - Pass Details

Date: 03 March 2021
Orbit: 606 x 624 km, 82.5° (Epoch: 11 April)

Event Time Altitude Azimuth Distance (km) Brightness Sun altitude
Rises 17:56:34 0° 190° (S) 2,891 6.6 -9.6°
Reaches altitude 10° 17:58:47 10° 191° (S) 1,991 5.8 -10.0°
Maximum altitude 18:03:13 84° 278° (W) 636 3.2 -10.7°
Drops below altitude 10° 18:07:41 10° 9° (N) 2,010 5.6 -11.4°
Sets 18:09:56 0° 10° (N) 2,921 6.5 -11.8°
